This demonstration page uses our WeatherBlox Daily Observations layout. Learn more.

Left ArrowRight Arrow

34.02893, -84.19858

Hourly Observations for October 13, 2019

Temp ( °F °C ) Dew Point ( °F °C ) Humidity (%) Winds ( mph kmh ) Pressure ( in mb ) Visibility ( mi km ) Precip ( " mm )
12:53 am 00:53 Cloudy with Light Rain 62 16.7 58 14.4 86 86 Calm 30.00 1016 8 13 0.01 0.25
1:53 am 01:53 Cloudy 62 16.7 59 15 90 90 Calm 29.99 1016 10 16 0.00 0.00
2:53 am 02:53 Cloudy with Light Rain 61 16.1 59 15 93 93 Calm 29.98 1015 9 14 0.00 0.00
3:53 am 03:53 Cloudy with Light Rain 61 16.1 60 15.6 97 97 Calm 29.97 1015 10 16 0.01 0.25
4:53 am 04:53 Mostly Cloudy 61 16.1 59 15 93 93 Calm 29.97 1015 10 16 0.00 0.00
5:53 am 05:53 Partly Cloudy 61 16.1 58 14.4 90 90 Calm 29.99 1016 10 16 0.00 0.00
6:53 am 06:53 Partly Cloudy 59 15 56 13.3 90 90 Calm 30.01 1016 10 16 0.00 0.00
7:53 am 07:53 Cloudy 60 15.6 58 14.4 93 93 Calm 30.01 1016 10 16 0.00 0.00
8:24 am 08:24 Cloudy 61 16.1 58 14.4 90 90 WNW 6 9 30.04 1017 10 16 0.00 0.00
8:53 am 08:53 Cloudy 59 15 56 13.3 90 90 NW 10 17 30.05 1018 10 16 0.00 0.00
9:33 am 09:33 Cloudy with Light Rain 59 15 58 14.4 96 96 NW 3 6 30.07 1018 5 8 0.01 0.25
9:38 am 09:38 Cloudy with Heavy Rain 59 15 57 13.9 93 93 WNW 6 9 30.07 1018 2 3 0.04 1.02
9:53 am 09:53 Cloudy with Light Rain 58 14.4 57 13.9 97 97 NW 7 11 30.06 1018 2 3 0.08 2.03
9:59 am 09:59 Cloudy with Light Rain 58 14.4 57 13.9 97 97 NNW 5 7 30.07 1018 3 5 0.00 0.00
10:39 am 10:39 Cloudy 59 15 57 13.9 93 93 NW 6 9 30.08 1019 10 16 0.01 0.25
10:46 am 10:46 Cloudy with Light Rain 59 15 57 13.9 93 93 WNW 6 9 30.08 1019 6 10 0.01 0.25
10:53 am 10:53 Cloudy with Light Rain 59 15 58 14.4 96 96 NW 6 9 30.07 1018 4 6 0.01 0.25
11:53 am 11:53 Cloudy with Mist and Fog 60 15.6 59 15 96 96 Calm 30.07 1018 6 10 0.01 0.25
12:53 pm 12:53 Cloudy 61 16.1 60 15.6 97 97 W 5 7 30.06 1018 8 13 0.00 0.00
1:44 pm 13:44 Cloudy with Light Rain 63 17.2 62 16.7 97 97 W 3 6 30.04 1017 2 3 0.01 0.25
1:53 pm 13:53 Cloudy with Light Rain 63 17.2 61 16.1 93 93 W 6 9 30.04 1017 3 4 0.01 0.25
1:56 pm 13:56 Cloudy with Light Rain 63 17.2 61 16.1 93 93 W 6 9 30.04 1017 3 5 0.00 0.00
2:15 pm 14:15 Cloudy with Light Rain 63 17.2 61 16.1 93 93 WSW 5 7 30.03 1017 3 5 0.00 0.00
2:22 pm 14:22 Cloudy with Light Rain 63 17.2 61 16.1 93 93 W 6 9 30.03 1017 2 3 0.01 0.25
2:53 pm 14:53 Cloudy with Mist and Fog 63 17.2 61 16.1 93 93 SSW 3 6 30.03 1017 5 8 0.01 0.25
3:53 pm 15:53 Cloudy with Light Rain 62 16.7 61 16.1 96 96 WSW 6 9 30.05 1018 4 6 0.04 1.02
4:53 pm 16:53 Mostly Cloudy 63 17.2 61 16.1 93 93 VRB 3 6 30.04 1017 10 16 0.01 0.25
5:00 pm 17:00 Mostly Cloudy 63 17.2 61 16.1 93 93 W 5 7 30.03 1017 10 16 0.00 0.00
5:53 pm 17:53 Mostly Cloudy 63 17.2 61 16.1 93 93 Calm 30.03 1017 10 16 0.00 0.00
5:55 pm 17:55 Cloudy 63 17.2 61 16.1 93 93 SSE 3 6 30.02 1017 9 14 0.00 0.00
6:53 pm 18:53 Cloudy with Light Rain 62 16.7 61 16.1 96 96 Calm 30.04 1017 9 14 0.00 0.00
7:45 pm 19:45 Cloudy with Light Rain 62 16.7 62 16.7 100 100 SSW 6 9 30.05 1017 7 11 0.04 1.02
7:53 pm 19:53 Cloudy with Light Rain 62 16.7 62 16.7 100 100 SSW 7 11 30.04 1017 6 10 0.04 1.02
8:53 pm 20:53 Partly Cloudy with Light Rain 62 16.7 60 15.6 93 93 WSW 6 9 30.07 1018 10 16 0.02 0.51
9:53 pm 21:53 Mostly Clear 61 16.1 58 14.4 90 90 NNW 8 13 30.07 1018 10 16 0.01 0.25
10:53 pm 22:53 Mostly Cloudy 60 15.6 59 15 96 96 Calm 30.06 1018 10 16 0.00 0.00
11:53 pm 23:53 Clear 60 15.6 58 14.4 93 93 W 3 6 30.06 1018 10 16 0.00 0.00

Powered by AerisWeather